This is the latest recevied weather packets stored in our database for station/object W4CAT-13. If no packets are shown the sender has not sent any weather packets the latest 1 day(s).
| Time | Temp. | Humidity | Pressure | Rain* | Wind** | Luminosity | Snow |
|---|---|---|---|---|---|---|---|
| 1778080851 | 10.56° C | 98% | 975.9 hPa | 0 mm | - | - | - |
| 1778078991 | 10.56° C | 99% | 975.6 hPa | 0 mm | - | - | - |
| 1778074401 | 10.56° C | 98% | 974.3 hPa | 1.02 mm | - | - | - |
| 1778073501 | 10.56° C | 98% | 974.3 hPa | 0.76 mm | - | - | - |
| 1778067200 | 11.11° C | 98% | 972.9 hPa | 3.56 mm | - | - | - |
| 1778064440 | 11.11° C | 98% | 972.6 hPa | 0.25 mm | - | - | - |
| 1778062580 | 11.11° C | 97% | 972.6 hPa | 0.76 mm | - | - | - |
| 1778061650 | 11.11° C | 97% | 971.9 hPa | 1.27 mm | - | - | - |
| 1778060720 | 11.67° C | 97% | 971.9 hPa | 1.02 mm | - | - | - |
| 1778059790 | 11.67° C | 96% | 972.2 hPa | 0.51 mm | - | - | - |
| 1778058860 | 11.67° C | 96% | 971.9 hPa | 1.02 mm | - | - | - |
| 1778057930 | 12.22° C | 95% | 972.2 hPa | 0.76 mm | - | - | - |
| 1778057000 | 13.33° C | 94% | 971.2 hPa | 0.76 mm | - | - | - |
| 1778056070 | 14.44° C | 92% | 971.2 hPa | 1.78 mm | - | - | - |
| 1778055140 | 17.22° C | 96% | 970.5 hPa | 1.52 mm | - | - | - |
| 1778054210 | 17.22° C | 95% | 970.2 hPa | 1.78 mm | - | - | - |
| 1778053280 | 17.78° C | 94% | 970.2 hPa | 2.03 mm | - | - | - |
| 1778052350 | 17.78° C | 92% | 970.2 hPa | 1.02 mm | - | - | - |
| 1778051420 | 18.33° C | 89% | 969.9 hPa | 0.51 mm | - | - | - |
| 1778050490 | 19.44° C | 83% | 969.5 hPa | 0.25 mm | - | - | - |
| 1778049560 | 20° C | 77% | 969.2 hPa | 0 mm | - | - | - |
| 1778048630 | 19.44° C | 79% | 969.5 hPa | 0 mm | - | - | - |
| 1778043980 | 19.44° C | 75% | 970.5 hPa | 0 mm | - | - | - |
| 1778038399 | 17.78° C | 84% | 971 hPa | 0 mm | - | - | - |
| 1778037469 | 17.78° C | 85% | 971.6 hPa | 0 mm | - | - | - |
* Rain latest hour (hover to see other rain measurements)
** Current wind speed in m/s (hover to see current wind gust speed)